TIME,DELAY(SENSOR),PRES,T(CTD),SAL,OXYGEN,RAWTEMP,T(OPTODE),TCPHASE,FLUOR,BETA(BETA700),BETA(BETA412),BETA(BETA440),CDOM,C(CSC),ED(ED411.90),ED(ED443.80),ED(ED489.40),ED(ED554.70),LU(LU412.20),LU(LU443.80),LU(LU489.40),LU(LU555.00),COMP,TILTX,TILTX(TILTY),CHECK
1363536912,5805,497.3599853515625000,16.2457008361816400,36.2134017944335940,202.8023986816406200,212.9660949707031200,16.2575893402099600,33.2364006042480500,73,524,95,79,68,11484,2146957860,2147518765,2147272640,2147467931,2147083492,2146945380,2147662244,2147125302,2508,-1,8,43779
1363537027,5804,486.4400024414062500,16.4654998779296880,36.2513008117675800,202.0547027587890600,206.3298034667968800,16.4575691223144530,33.1858711242675800,72,513,95,78,69,11482,2146960402,2147514176,2147271213,2147468516,2147082560,2146953526,2147658203,2147121298,2918,-1,8,28242
1363537142,5804,475.3500061035156000,16.6105003356933600,36.2817001342773440,204.1354064941406200,201.3468017578125000,16.6077499389648440,32.9944305419921900,73,531,94,79,68,11485,2146957942,2147513810,2147273764,2147461046,2147081353,2146949147,2147661540,2147117869,3078,-2,8,16772
1363537259,5805,464.1799926757812500,16.8367996215820300,36.3331985473632800,217.0258026123047000,193.7879028320312500,16.8355903625488280,32.1721305847168000,73,545,94,78,68,11483,2146962550,2147515419,2147271552,2147464566,2147082020,2146949440,2147653805,2147124662,3455,-2,8,49078
1363537374,5805,453.3599853515625000,16.9384994506835940,36.3541984558105500,220.7541961669922000,190.6506958007812500,16.9301700592041000,31.9312992095947270,72,536,94,77,68,11483,2146959360,2147513590,2147270646,2147459072,2147083209,2146951643,2147660004,2147121728,2840,-1,8,17588
1363537503,5804,441.4899902343750000,17.0356006622314450,36.3731994628906250,221.7389984130859400,187.1647033691406200,17.0352706909179700,31.8315906524658200,72,522,95,78,68,11485,2146959579,2147514432,2147271881,2147460324,2147085312,2146953426,2147653696,2147122395,2291,-2,8,48334
1363537630,5805,430.1000061035156000,17.2555007934570300,36.4141006469726560,223.6295928955078000,179.8677062988281200,17.2553195953369140,31.6336803436279300,73,562,94,78,67,11479,2146956224,2147513014,2147269312,2147460077,2147082898,2146959643,2147656704,2147125083,2011,-1,8,22019
1363537757,5803,419.1499938964844000,17.3558006286621100,36.4341011047363300,225.7397003173828000,176.6549072265625000,17.3522300720214840,31.4816207885742200,73,523,94,77,67,11480,2146957632,2147512292,2147270308,2147457014,2147081993,2146953270,2147653302,2147121664,1024,-1,8,9578
1363537886,5803,408.3800048828125000,17.4309997558593750,36.4505004882812500,227.3430938720703000,174.2135009765625000,17.4258804321289060,31.3672599792480470,73,528,93,80,68,11480,2146956553,2147511259,2147271076,2147456877,2147083264,2146957485,2147653824,2147125110,1145,-1,8,47840
1363538025,5804,397.0299987792969000,17.5830001831054700,36.4766998291015600,228.7570953369140600,169.1132965087890600,17.5797595977783200,31.2268390655517580,72,510,94,78,67,11481,2146956772,2147516992,2147269229,2147457280,2147085147,2146957248,2147651044,2147123730,1394,-1,8,44500
1363538154,5804,386.5700073242187500,17.6695003509521500,36.4925994873046900,228.8661956787109400,166.0614013671875000,17.6718692779541000,31.1800804138183600,73,535,94,79,66,11482,2146956754,2147516379,2147267840,2147455094,2147084388,2146955483,2147652278,2147127579,1141,-2,8,49110
1363538293,5806,375.0299987792969000,17.7647991180419920,36.5084991455078100,230.4947967529297000,163.1770019531250000,17.7589302062988280,31.0604095458984380,72,517,93,78,67,11480,2146956114,2147515273,2147267821,2147459684,2147082715,2146956571,2147649563,2147126976,998,-1,8,24899
1363538422,5803,364.1900024414062500,17.7761993408203120,36.5106010437011700,229.8370056152343800,162.5473937988281200,17.7779293060302730,31.0841407775878900,72,547,97,79,67,11478,2146958070,2147515529,2147267968,2147455213,2147083538,2146957714,2147651501,2147126363,3486,-1,8,6694
1363538549,5806,353.3399963378906000,17.8474998474121100,36.5190010070800800,229.4044036865234400,160.3074035644531200,17.8455600738525400,31.0757007598876950,73,542,94,78,66,11479,2146956077,2147514733,2147268315,2147456237,2147082852,2146958838,2147653220,2147128713,267,-1,8,32501
1363538676,5807,342.2799987792969000,17.8805999755859380,36.5247001647949200,228.5623931884765600,159.2528076171875000,17.8773994445800780,31.1033592224121100,73,563,94,80,67,11480,2146959698,2147513600,2147265005,2147451913,2147083702,2146956059,2147651830,2147123684,3569,-1,8,10002
1363538805,5803,330.8699951171875000,17.9379997253417970,36.5351982116699200,229.0901947021484400,157.4199981689453000,17.9327392578125000,31.0524005889892580,73,552,94,79,67,11478,2146955748,2147513426,2147265161,2147454921,2147084370,2146959789,2147654281,2147126674,3450,-1,8,45881
1363538920,5806,320.7900085449219000,17.9953002929687500,36.5345993041992200,225.8229064941406200,155.3547973632812500,17.9951000213623050,31.1882305145263670,73,566,95,77,67,11476,2146956068,2147513929,2147265206,2147455533,2147082486,2146956416,2147653174,2147134811,301,-2,8,24346
1363539061,5808,308.8900146484375000,18.0995006561279300,36.5521011352539060,225.3442993164062500,152.1497955322265600,18.0918998718261720,31.1692695617675780,73,525,95,78,69,11475,2146958381,2147516562,2147267830,2147455606,2147081929,2146957184,2147655058,2147123593,3592,-2,8,13118
1363539200,5804,297.5599975585937500,18.1457004547119140,36.5575981140136700,225.3618927001953000,150.3813018798828000,18.1453208923339840,31.1445808410644530,72,527,94,79,67,11475,2146955227,2147515291,2147269312,2147453952,2147077577,2146960832,2147659419,2147127378,3146,-2,8,29009
1363539341,5804,286.8099975585937500,18.2357997894287100,36.5704002380371100,225.0747070312500000,147.5610046386718800,18.2305297851562500,31.1208992004394530,73,523,94,79,67,11475,2146959817,2147517833,2147262518,2147454930,2147081398,2146958418,2147658834,2147126400,2568,-1,8,31980
1363539492,5806,275.5499877929687500,18.2996997833251950,36.5742988586425800,224.2052001953125000,145.4015045166015600,18.2957801818847660,31.1361293792724600,73,524,95,79,67,11475,2146957979,2147516498,2147262884,2147453312,2147084086,2146958125,2147660553,2147123830,2319,-1,9,6781
1363539676,5805,261.3699951171875000,18.4008007049560550,36.5736007690429700,225.7337036132812500,142.0977935791015600,18.3956298828125000,31.0144691467285160,73,513,94,79,66,11473,2146956809,2147515456,2147265956,2147451702,2147080987,2146964873,2147666587,2147130230,1402,-2,8,23189
1363539791,5804,250.2100067138672000,18.4827995300292970,36.5698013305664060,227.6463928222656200,139.3988952636718800,18.4772205352783200,30.8822593688964840,72,530,93,78,67,11470,2146956937,2147516077,2147264950,2147452571,2147079341,2146968182,2147675291,2147126509,1525,-1,8,23844
1363539906,5803,238.3200073242187500,18.5970993041992200,36.5708999633789060,228.4521942138672000,135.6685943603515600,18.5900096893310550,30.7924900054931640,73,531,95,78,67,11479,2146957650,2147512768,2147269248,2147453110,2147079606,2146974125,2147687369,2147130532,1573,-1,9,18352
1363540023,5806,226.3899993896484400,18.6137008666992200,36.5663986206054700,229.5030975341797000,134.7958068847656200,18.6164093017578120,30.7289199829101560,73,507,96,78,67,11477,2146956297,2147516608,2147266797,2147452315,2147077394,2146979977,2147700736,2147130715,1017,-1,9,12591
1363540138,5806,215.0299987792968800,18.7924995422363280,36.5721015930175800,228.9001007080078000,129.3350067138672000,18.7816009521484380,30.6859493255615230,74,547,95,79,67,11473,2146954084,2147514029,2147268123,2147452096,2147080722,2146983195,2147716434,2147131163,740,-2,8,34747
1363540253,5808,204.3999938964843800,19.1998996734619140,36.6371002197265600,222.3787994384765600,115.9031982421875000,19.1882400512695300,30.8344306945800780,73,550,95,80,68,11474,2146960329,2147513197,2147266331,2147449673,2147075492,2146990482,2147702006,2147127177,71,-2,8,20925
1363540340,5805,197.1999969482422000,19.2649002075195300,36.6403007507324200,221.6636047363281200,113.3402023315429700,19.2658901214599600,30.8368797302246100,73,539,95,80,66,11477,2146958308,2147515072,2147266742,2147448347,2147079323,2147010267,2147747529,2147132315,2787,-2,9,16711
1363540395,5805,193.0899963378906200,19.3442001342773440,36.6423988342285160,222.0084991455078000,111.0467987060546900,19.3353900909423830,30.7887992858886720,74,546,94,79,67,11473,2146954194,2147514825,2147268370,2147446098,2147087213,2147020608,2147763721,2147134308,2822,-2,8,24128
1363540450,5806,189.2299957275390600,19.4221000671386720,36.6365013122558600,222.8777008056640600,107.6512985229492200,19.4383201599121100,30.6997203826904300,71,494,96,79,67,11467,2146958509,2147513993,2147268105,2147449828,2147083273,2147029293,2147790601,2147135789,2875,-2,9,45201
1363540505,5803,185.5000000000000000,19.4930000305175780,36.6310997009277340,226.2315979003906200,105.8907012939453100,19.4916992187500000,30.5077590942382800,73,534,95,79,67,11469,2146955739,2147516937,2147269156,2147446765,2147091693,2147048155,2147810742,2147138358,3432,-1,8,63859
1363540560,5805,181.8899993896484400,19.5235004425048830,36.6279983520507800,228.9732055664062500,104.8834991455078100,19.5222396850585940,30.3591194152832030,74,618,96,80,66,11466,2146953737,2147514148,2147269732,2147447954,2147092918,2147051666,2147831131,2147139867,3531,-2,8,37538
1363540639,5804,177.2500000000000000,19.5890007019042970,36.6239013671875000,232.1275939941406200,102.7863006591796900,19.5858497619628900,30.1781501770019530,74,530,97,80,67,11463,2146957869,2147516699,2147270710,2147447433,2147096786,2147068425,2147857536,2147137234,2907,-2,9,3162
1363540718,5801,173.3600006103515600,19.6637001037597660,36.6166000366210940,235.1616973876953000,100.5450973510742200,19.6538391113281250,30.0036907196044920,74,532,97,80,65,11458,2146957403,2147512320,2147273481,2147445056,2147103332,2147086784,2147879762,2147142829,2533,-1,9,50249
1363540797,5803,169.6300048828125000,19.7087993621826170,36.6151008605957000,238.0097961425781200,98.9316482543945300,19.7027893066406250,29.8484992980957030,72,524,97,80,65,11453,2146957833,2147515264,2147270656,2147446976,2147105133,2147106322,2147910134,2147143030,3341,-1,9,43426
1363540876,5805,165.5200042724609400,19.7474994659423830,36.6111984252929700,240.6549987792968800,97.5908737182617200,19.7434806823730470,29.7083797454834000,75,545,95,81,65,11454,2146958171,2147518308,2147273362,2147446546,2147103524,2147120566,2147944182,2147145782,426,-2,9,27989
1363540957,5804,161.1499938964843800,19.7772998809814450,36.6160011291503900,240.9658966064453000,96.5276412963867200,19.7757492065429700,29.6803607940673830,74,536,98,82,65,11457,2146955794,2147517924,2147274761,2147445897,2147118491,2147156909,2147998482,2147146066,425,-2,9,40122
1363541024,5807,157.3800048828125000,19.8062992095947270,36.6105995178222660,241.9102935791015600,95.7317962646484400,19.7999095916748050,29.6265907287597660,74,556,97,80,65,11452,2146956041,2147522678,2147279387,2147444598,2147126729,2147181824,2148039433,2147151323,428,-1,8,6214
1363541103,5806,152.9100036621093800,19.8304996490478500,36.6069984436035160,244.6692962646484400,94.8672332763671900,19.8261604309082030,29.4899101257324220,75,539,97,81,64,11449,2146957138,2147518976,2147278820,2147446555,2147137718,2147223561,2148109650,2147154249,420,-2,9,39257
1363541170,5806,149.0700073242187500,19.8537998199462900,36.6083984375000000,246.1208038330078000,94.1658172607421900,19.8474502563476560,29.4153308868408200,74,544,98,82,65,11451,2146959314,2147522468,2147282569,2147442916,2147150272,2147274733,2148182957,2147161069,87,-2,8,45868
1363541239,5807,145.0700073242187500,19.8948993682861330,36.6116981506347660,246.8038940429687500,92.9637069702148400,19.8839492797851560,29.3693504333496100,75,544,96,81,64,11449,2146960457,2147524489,2147281453,2147444178,2147167552,2147328512,2148254665,2147164388,2976,-2,9,62819
1363541306,5803,141.2400054931640600,19.8911991119384770,36.6057014465332000,251.6286010742187500,92.9319534301757800,19.8849201202392580,29.1557903289794920,75,559,100,83,63,11431,2146961179,2147524324,2147289746,2147441792,2147185462,2147370267,2148335058,2147167689,2966,-2,9,23825
1363541373,5804,137.5700073242187500,19.8941001892089840,36.6030998229980500,254.7913055419922000,92.7992782592773400,19.8889408111572270,29.0170803070068360,75,543,98,83,63,11434,2146959332,2147525805,2147289938,2147439716,2147200768,2147421531,2148399652,2147173641,2914,-2,9,57849
1363541452,5805,133.4100036621093800,19.9130001068115230,36.6045989990234400,256.7065124511719000,92.2019195556640600,19.9070892333984380,28.9272899627685550,75,540,100,83,62,11431,2146964004,2147529846,2147290898,2147444004,2147230592,2147511533,2148539492,2147183305,2843,-2,9,10567
1363541531,5804,129.3300018310547000,19.9200992584228500,36.6060981750488300,258.3251953125000000,91.9271163940429700,19.9154300689697270,28.8550796508789060,76,550,100,83,62,11416,2146965010,2147532790,2147299154,2147441819,2147275355,2147626020,2148711158,2147193298,3202,-2,9,665
1363541612,5805,125.2300033569336000,19.9242000579834000,36.6077003479003900,258.8783874511719000,91.7753829956054700,19.9200401306152340,28.8296108245849600,76,546,99,84,64,11421,2146967049,2147536832,2147306569,2147443565,2147319168,2147744064,2148889316,2147204214,3072,-1,9,3954
1363541691,5805,121.3099975585937500,19.9638996124267580,36.6133003234863300,258.2879028320312500,90.5147628784179700,19.9583206176757800,28.8384990692138670,75,536,99,84,63,11417,2146970916,2147542006,2147313106,2147441179,2147372955,2147869266,2149073856,2147211949,2500,-2,9,25591
1363541770,5805,117.7900009155273400,19.9680995941162100,36.6120986938476560,257.8566894531250000,90.3016433715820300,19.9647998809814450,28.8541297912597660,94,1026,100,84,62,11420,2146970450,2147543570,2147322230,2147441700,2147423835,2147990793,2149247094,2147225106,2082,-2,9,44299
1363541873,5808,113.6200027465820300,19.9867992401123050,36.6138000488281250,257.9602966308594000,89.6998367309570300,19.9830799102783200,28.8422107696533200,96,1016,100,84,63,11422,2146972214,2147550902,2147332169,2147445705,2147501641,2148165540,2149502930,2147246317,1848,-2,9,59691
1363541978,5803,109.6800003051757800,20.1226005554199220,36.6268005371093750,258.6929016113281000,85.7422485351562500,20.1033191680908200,28.7610301971435550,95,921,102,85,62,11376,2146975945,2147560822,2147342299,2147443776,2147590418,2148343634,2149762194,2147264265,1579,-1,9,21301
1363542081,5805,106.0400009155273400,20.1273994445800780,36.6272010803222660,260.3205871582031000,85.0671768188476600,20.1238403320312500,28.6840496063232420,96,942,105,86,62,11369,2146977865,2147560950,2147353572,2147445248,2147689444,2148532562,2150054171,2147286464,1510,-2,9,8754
1363542196,5805,101.8099975585937500,20.1648998260498050,36.6315994262695300,260.8145141601562500,83.9084472656250000,20.1590595245361330,28.6487503051757800,102,1134,104,86,63,11357,2146986697,2147574802,2147371657,2147444361,2147851574,2148843584,2150507401,2147327908,1474,-2,9,16466
1363542271,5799,98.6699981689453100,20.1959991455078120,36.6353988647460940,261.1582946777344000,82.9527130126953100,20.1881103515625000,28.6223793029785160,93,923,104,88,63,11349,2146989961,2147583241,2147390628,2147448000,2148002102,2149114889,2150903616,2147364736,1558,-1,9,24376
1363542326,5807,95.8099975585937500,20.1938991546630860,36.6362991333007800,261.6111145019531000,82.8930130004882800,20.1899299621582030,28.6027793884277340,95,1283,105,87,62,11336,2147002395,2147595291,2147405595,2147449417,2148157622,2149388242,2151296530,2147402066,1712,-2,9,1606
1363542381,5805,93.0899963378906200,20.2374992370605470,36.6399002075195300,261.6236877441406000,81.3250579833984400,20.2376003265380860,28.5824699401855470,98,946,106,89,60,11337,2147005229,2147607405,2147420425,2147450752,2148329334,2149685750,2151720713,2147443702,1779,-2,9,39587
1363542436,5807,90.4499969482421900,20.3164005279541000,36.6492996215820300,262.2636108398437500,79.1418380737304700,20.3040008544921880,28.5282802581787100,99,1059,106,88,61,11307,2147011968,2147618486,2147439350,2147449115,2148520786,2150001398,2152159104,2147486720,1895,-2,9,51929
1363542491,5808,87.9400024414062500,20.3190002441406250,36.6506004333496100,262.9088134765625000,78.8092269897461000,20.3141098022460940,28.4973392486572270,108,1650,106,90,61,11295,2147023789,2147628022,2147461220,2147451529,2148726930,2150341769,2152629659,2147534866,1806,-2,9,51284
1363542546,5809,85.3899993896484400,20.3227996826171880,36.6501998901367200,263.3254089355469000,78.6788177490234400,20.3180809020996100,28.4785194396972660,96,1112,107,90,61,11296,2147035904,2147647862,2147487597,2147453476,2149001426,2150773961,2153239131,2147606619,1728,-2,9,13818
1363542603,5808,82.5699996948242200,20.3211994171142580,36.6497993469238300,263.6473083496094000,78.7053680419921900,20.3172702789306640,28.4656200408935550,110,2150,106,89,62,11286,2147046930,2147663488,2147515830,2147453385,2149327232,2151289435,2153950829,2147684955,1884,-2,9,53739
1363542658,5808,79.8300018310546900,20.3206996917724600,36.6492004394531250,263.9382934570312500,78.7274017333984400,20.3166007995605470,28.4540100097656250,84,656,108,91,62,11283,2147061696,2147683236,2147547501,2147459584,2149674441,2151817974,2154630528,2147775149,1779,-2,9,35309
1363542713,5807,77.0500030517578100,20.3176002502441400,36.6486015319824200,263.9624023437500000,78.7769699096679700,20.3150901794433600,28.4535408020019530,85,656,108,88,61,11279,2147080018,2147707053,2147585846,2147464155,2150120667,2152504886,2155536841,2147889746,1692,-2,9,13848
1363542768,5804,74.1500015258789000,20.3171005249023440,36.6475982666015600,263.9302062988281000,78.7963409423828100,20.3145008087158200,28.4549598693847660,84,694,106,90,62,11276,2147103954,2147746230,2147641874,2147469010,2150727506,2153433435,2156742619,2148051593,1629,-2,9,52033
1363542823,5800,71.1699981689453100,20.3155994415283200,36.6470985412597660,264.0856018066406000,78.8502273559570300,20.3128604888916000,28.4494304656982420,85,656,106,91,61,11276,2147134555,2147789485,2147711305,2147474148,2151540132,2154721069,2158426102,2148263890,1600,-2,9,25568
1363542878,5804,68.1699981689453100,20.3159008026123050,36.6469001770019500,264.2427978515625000,78.8342132568359400,20.3133506774902340,28.4426708221435550,85,676,107,88,62,11274,2147170258,2147844443,2147791606,2147479826,2152452169,2156082669,2160119350,2148511652,1505,-2,9,57204
1363542935,5806,65.0000000000000000,20.3155002593994140,36.6473999023437500,264.3175048828125000,78.8335189819336000,20.3133697509765620,28.4397506713867200,86,681,105,90,64,11274,2147217417,2147897645,2147874861,2147492187,2153484214,2157575506,2161933238,2148783734,1391,-2,9,52087
1363542990,5804,61.9399986267089840,20.3155002593994140,36.6469993591308600,264.4921875000000000,78.8179779052734400,20.3138504028320300,28.4323196411132800,86,718,108,89,60,11270,2147265554,2147965266,2147974866,2147508032,2154744850,2159349577,2164027712,2149130038,1391,-2,9,1082
1363543045,5804,58.9199981689453100,20.3194999694824220,36.6464996337890600,264.5845031738281000,78.6913070678711000,20.3176994323730470,28.4268093109130860,84,652,107,89,65,11262,2147321206,2148034578,2148082441,2147529334,2156045933,2161183350,2166166811,2149509522,1176,-2,9,31226
1363543100,5805,55.9599990844726560,20.3204002380371100,36.6464996337890600,264.8236083984375000,78.6431198120117200,20.3191604614257800,28.4165306091308600,86,711,107,90,61,11261,2147357714,2148076150,2148140745,2147557696,2156843419,2162058779,2166875794,2149733257,876,-2,9,50851
1363543242,5803,49.6800003051757800,20.3255004882812500,36.6454010009765600,264.9588012695312500,78.4250793457031200,20.3257999420166000,28.4082202911376950,86,683,107,89,62,11240,2147507547,2148246729,2148357888,2147609069,2160586157,2166904548,2171976603,2150822089,335,-2,9,5672
1363543277,5806,47.9300003051757800,20.3292999267578120,36.6445007324218750,265.1422119140625000,78.2333984375000000,20.3316307067871100,28.3983592987060550,85,707,106,90,62,11235,2147590418,2148349174,2148483145,2147612818,2162677659,2169827456,2175322788,2151475126,19,-2,9,49603
1363543310,5805,46.3899993896484400,20.3377990722656250,36.6445007324218750,265.1453857421875000,78.1516723632812500,20.3341102600097660,28.3972492218017580,84,717,108,92,61,11236,2147640128,2148409581,2148537069,2147616173,2164020653,2171510619,2177126372,2151869458,3349,-2,9,44255
1363543355,5804,44.3899993896484400,20.3383998870849600,36.6444015502929700,265.1878967285156000,77.9838027954101600,20.3392200469970700,28.3932895660400400,86,739,108,89,60,11235,2147745014,2148524900,2148676397,2147641078,2166558061,2174946724,2180936950,2152680768,3185,-2,9,52922
1363543388,5802,42.8899993896484400,20.3393001556396500,36.6450996398925800,265.3540954589844000,77.8914489746093800,20.3420295715332030,28.3852500915527340,85,702,108,89,61,11223,2147786395,2148558016,2148698870,2147635712,2167778651,2176293568,2182156809,2153075904,2918,-2,9,705
1363543421,5805,41.4099998474121100,20.3416004180908200,36.6455993652343750,265.3255920410156000,77.7648696899414000,20.3458805084228500,28.3848304748535160,85,669,108,89,61,11233,2147870656,2148662802,2148820416,2147659620,2169898368,2179121462,2185260827,2153770486,2828,-2,9,10841
1363543466,5802,39.3400001525878900,20.3439998626709000,36.6464004516601560,265.4224853515625000,77.7668380737304700,20.3458194732666000,28.3810901641845700,86,648,109,89,61,11231,2147935524,2148717814,2148862683,2147675794,2171593865,2180893156,2186616192,2154353225,2776,-2,9,31078
1363543511,5808,37.3899993896484400,20.3561000823974600,36.6479988098144500,265.2684020996094000,77.3246688842773400,20.3592700958251950,28.3817195892334000,85,683,109,90,62,11219,2148078518,2148876086,2149051456,2147713828,2175300013,2185417481,2191213458,2155624896,2679,-2,9,56213
1363543556,5807,35.5000000000000000,20.3602008819580080,36.6477012634277340,265.3356018066406000,77.2131423950195300,20.3626594543457030,28.3776893615722660,87,746,108,90,63,11218,2148261632,2149099172,2149321609,2147764836,2180126354,2191681956,2197973915,2157373540,2666,-1,9,31592
1363543603,5804,33.4300003051757800,20.3666000366210940,36.6483001708984400,265.6044921875000000,77.0064163208007800,20.3689498901367200,28.3641700744628900,85,701,106,89,61,11221,2148320795,2149127341,2149327241,2147794084,2181220379,2192297490,2197691401,2157773330,2822,-2,9,18839
1363543648,5804,31.4400005340576170,20.3756999969482420,36.6493988037109400,265.4433898925781000,76.6736068725586000,20.3790798187255860,28.3664207458496100,84,639,109,93,62,11215,2148296018,2149061321,2149200969,2147796160,2180647488,2190538870,2194634962,2157514258,2941,-1,8,47715
1363543693,5804,29.5400009155273440,20.3785991668701170,36.6506004333496100,265.9334106445312500,76.5717163085937500,20.3821792602539060,28.3451805114746100,84,625,108,89,59,11218,2148415972,2149180955,2149334683,2147837979,2183518884,2193518902,2197143606,2158491236,2958,-2,8,15175
1363543738,5802,27.6100006103515620,20.3801994323730470,36.6506996154785160,265.8576049804687500,76.4942169189453100,20.3845405578613280,28.3473796844482420,85,719,110,90,61,11211,2148628278,2149395666,2149560822,2147896484,2189140425,2200223552,2203787392,2160656402,2858,-2,8,14761
1363543783,5806,25.6700000762939450,20.3824996948242200,36.6502990722656250,266.2533874511719000,76.3158187866211000,20.3899707794189450,28.3288898468017580,84,682,107,88,60,11218,2149342080,2150206226,2150555227,2148138130,2206799872,2223093092,2228326144,2167954733,2892,-3,9,45590
